Content
SEND FEEDBACK

Daily
Averages
Monthly
Summary
Canada

VANCOUVER, BRITISH COLUMBIA


Home > North America > Canada > British Columbia
Elevation: 7 feet     Latitude: 49 11N     Longitude: 123 10W

WEATHER
 
SELECT A DAY
Number of Records: 253,051;   Date Range: 5/15/97 - 10/22/14
 
SHARE

PRINT THIS DATA

[ ← Previous Day ]
WEATHER ALMANAC - APRIL 15, 2014
[ Next Day → ]
[ °C ]   °F
Weather ElementAverageHighLow
Temperature50.8 °F55.4 °F (11:55 am)44.6 °F (5:55 am)
Dewpoint39.1 °F46.4 °F (10:35 pm)33.8 °F (7:55 am)
Humidity65.4 %100 % (10:35 pm)51 % (4:55 pm)
Barometer30.10 in30.15 in (10:35 am)30.04 in (10:55 pm)
Wind Speed5.9 mph11.5 mph (12:35 am)
Weather ElementAverage
Visibility8.9 mi
Wind DirectionSSE (166.4 °)

Weather ElementTotal
Precipitation---
Heating Degree Days15 (Base 65)
Averaged from 67 records on April 15, 2014
WEATHER CONDITIONS BREAKOUT
WIND DIRECTION BREAKOUT
WEATHER BY HOUR - APRIL 15, 2014
[ °C ]   °F
Local TimeTemperatureDewpointHumidityBarometerVisibilityWind DirectionWind SpeedGust SpeedPrecipitationEventsConditions
12:35 AM48.2 °F39.2 °F71 %30.09 in10.0 miSW (220°)11.5 mphScattered Clouds
12:55 AM48.2 °F39.2 °F71 %30.09 in10.0 miSSW (200°)9.2 mphScattered Clouds
1:15 AM48.2 °F39.2 °F71 %30.09 in10.0 miSSW (210°)9.2 mphPartly Cloudy
1:35 AM48.2 °F39.2 °F71 %30.09 in10.0 miSSW (210°)6.9 mphScattered Clouds
1:55 AM48.2 °F37.4 °F66 %30.09 in10.0 miSouth (190°)6.9 mphMostly Cloudy
2:15 AM48.2 °F37.4 °F66 %30.09 in10.0 miSSW (200°)6.9 mphOvercast
2:35 AM48.2 °F37.4 °F66 %30.09 in10.0 miSSW (210°)8.1 mphOvercast
2:55 AM48.2 °F37.4 °F66 %30.10 in10.0 miSSW (200°)6.9 mphOvercast
3:15 AM48.2 °F37.4 °F66 %30.10 in10.0 miSSW (200°)10.4 mphMostly Cloudy
3:35 AM48.2 °F37.4 °F66 %30.10 in10.0 miSSW (210°)8.1 mphScattered Clouds
3:55 AM48.2 °F35.6 °F62 %30.11 in10.0 miSSW (210°)5.8 mphScattered Clouds
4:15 AM48.2 °F35.6 °F62 %30.11 in10.0 miSSW (210°)5.8 mphPartly Cloudy
4:55 AM46.4 °F35.6 °F66 %30.11 in10.0 miSSW (210°)6.9 mphClear
5:15 AM46.4 °F35.6 °F66 %30.11 in10.0 miSouth (190°)5.8 mphClear
5:55 AM44.6 °F35.6 °F71 %30.12 in10.0 miSSW (210°)6.9 mphClear
6:15 AM46.4 °F35.6 °F66 %30.12 in10.0 miSSW (200°)8.1 mphClear
6:35 AM44.6 °F35.6 °F71 %30.12 in8.0 miSSW (200°)5.8 mphClear
6:55 AM44.6 °F35.6 °F71 %30.12 in8.0 miSouth (180°)3.5 mphClear
7:15 AM44.6 °F35.6 °F71 %30.12 in10.0 miSSW (210°)6.9 mphClear
7:35 AM46.4 °F35.6 °F66 %30.13 in8.0 miSSW (210°)6.9 mphClear
7:55 AM48.2 °F33.8 °F58 %30.13 in9.0 miSSW (200°)9.2 mphClear
8:15 AM48.2 °F33.8 °F58 %30.13 in9.0 miSW (220°)9.2 mphClear
8:35 AM48.2 °F33.8 °F58 %30.13 in8.0 miSW (220°)8.1 mphClear
8:55 AM50.0 °F35.6 °F58 %30.14 in9.0 miSSW (200°)5.8 mphClear
9:15 AM50.0 °F35.6 °F58 %30.14 in9.0 miSouth (180°)5.8 mphClear
9:35 AM50.0 °F35.6 °F58 %30.14 in9.0 miSSW (200°)5.8 mphClear
9:55 AM51.8 °F35.6 °F54 %30.14 in10.0 miSouth (190°)8.1 mphClear
10:35 AM53.6 °F37.4 °F54 %30.15 in9.0 miSouth (190°)4.6 mphClear
10:55 AM53.6 °F39.2 °F58 %30.15 in9.0 miSouth (180°)5.8 mphClear
11:15 AM53.6 °F39.2 °F58 %30.15 in9.0 miSouth (190°)5.8 mphPartly Cloudy
11:35 AM53.6 °F39.2 °F58 %30.15 in9.0 miSouth (190°)5.8 mphScattered Clouds
11:55 AM55.4 °F41.0 °F58 %30.15 in8.0 miSouth (170°)3.5 mphScattered Clouds
12:15 PM55.4 °F41.0 °F58 %30.14 in10.0 miSouth (180°)6.9 mphPartly Cloudy
12:35 PM55.4 °F41.0 °F58 %30.14 in9.0 miSouth (190°)9.2 mphPartly Cloudy
12:55 PM55.4 °F41.0 °F58 %30.14 in9.0 miSouth (190°)8.1 mphPartly Cloudy
1:15 PM55.4 °F41.0 °F58 %30.14 in9.0 miSouth (170°)5.8 mphScattered Clouds
1:35 PM55.4 °F41.0 °F58 %30.13 in10.0 miSouth (170°)5.8 mphPartly Cloudy
1:55 PM53.6 °F41.0 °F62 %30.13 in7.0 miSouth (180°)8.1 mphRainLight Rain
2:15 PM53.6 °F44.6 °F72 %30.13 in5.0 miSouth (180°)8.1 mphRainLight Rain
2:55 PM55.4 °F41.0 °F58 %30.12 in10.0 miSouth (180°)6.9 mphPartly Cloudy
3:15 PM55.4 °F41.0 °F58 %30.12 in10.0 miSSW (200°)11.5 mphMostly Cloudy
3:35 PM55.4 °F41.0 °F58 %30.11 in9.0 miSouth (180°)5.8 mphMostly Cloudy
3:55 PM55.4 °F39.2 °F54 %30.11 in10.0 miSouth (190°)8.1 mphPartly Cloudy
4:15 PM55.4 °F39.2 °F54 %30.10 in10.0 miSSW (200°)8.1 mphPartly Cloudy
4:35 PM55.4 °F39.2 °F54 %30.10 in10.0 miSSW (210°)11.5 mphMostly Cloudy
4:55 PM55.4 °F37.4 °F51 %30.10 in10.0 miSouth (190°)6.9 mphScattered Clouds
5:15 PM55.4 °F39.2 °F54 %30.10 in9.0 miSouth (190°)9.2 mphScattered Clouds
5:35 PM55.4 °F37.4 °F51 %30.09 in10.0 miSouth (190°)8.1 mphOvercast
5:55 PM55.4 °F37.4 °F51 %30.09 in9.0 miSouth (190°)6.9 mphMostly Cloudy
6:15 PM55.4 °F37.4 °F51 %30.08 in10.0 miCalmMostly Cloudy
6:35 PM55.4 °F39.2 °F54 %30.07 in9.0 miSouth (190°)4.6 mphMostly Cloudy
6:55 PM55.4 °F39.2 °F54 %30.06 in9.0 miSouth (190°)5.8 mphMostly Cloudy
7:15 PM53.6 °F39.2 °F58 %30.06 in9.0 miCalmMostly Cloudy
7:35 PM53.6 °F39.2 °F58 %30.06 in10.0 miCalmMostly Cloudy
7:55 PM53.6 °F39.2 °F58 %30.06 in10.0 miSSW (200°)3.5 mphScattered Clouds
8:15 PM53.6 °F39.2 °F58 %30.06 in10.0 miWSW (250°)5.8 mphRainLight Rain
8:30 PM51.8 °F41.0 °F67 %30.06 in10.0 miWSW (250°)5.8 mphMostly Cloudy
8:55 PM50.0 °F41.0 °F71 %30.07 in8.0 miSSW (210°)5.8 mphRainLight Rain
9:15 PM50.0 °F42.8 °F76 %30.06 in7.0 miWest (270°)5.8 mphRainLight Rain
9:35 PM48.2 °F44.6 °F87 %30.06 in5.0 miCalmRainLight Rain
9:55 PM48.2 °F44.6 °F87 %30.06 in5.0 miCalmRainLight Rain
10:15 PM46.4 °F44.6 °F93 %30.05 in5.0 miCalmRainLight Rain
10:35 PM46.4 °F46.4 °F100 %30.05 in7.0 miCalmRainLight Rain
10:55 PM46.4 °F46.4 °F100 %30.04 in7.0 miCalmRainLight Rain
11:15 PM46.4 °F46.4 °F100 %30.04 in5.0 miCalmRainLight Rain
11:35 PM46.4 °F46.4 °F100 %30.04 in5.0 miCalmRainLight Rain
11:55 PM46.4 °F46.4 °F100 %30.04 in5.0 miCalmRainLight Rain
Hourly data recorded from CZBB, located miles away from Vancouver, British Columbia







STORIES FROM OUR PARTNERS